Regional Weather Roundup
Issued by NWS

Home | Current Version | Previous Version | Graphics & Text | Print | Product List | Glossary Off
Versions: 1 2 3 4 5 6 7 8 9 10 11 12 13 14 15 16 17 18 19 20 21 22 23 24 25 26 27 28 29 30 31 32 33 34 35 36 37 38 39 40 41 42 43 44 45 46 47 48 49 50

000
ASUS43 KDTX 210310
RWRMI
MICHIGAN HOURLY REGIONAL WEATHER ROUNDUP
NATIONAL WEATHER SERVICE DETROIT/PONTIAC MI
1000 PM EST SAT DEC 20 2014

NOTE: "FAIR" INDICATES FEW OR NO CLOUDS BELOW 12,000 FEET WITH NO
SIGNIFICANT WEATHER AND/OR OBSTRUCTION TO VISIBILITY.

MIZ047>049-052>055-059>063-066>070-074>076-081>083-210400-
SOUTHEAST LOWER MICHIGAN

CITY           SKY/WX    TMP DP  RH WIND       PRES   REMARKS
ADRIAN         CLOUDY    29  23  78 CALM      30.28F
ALMA           CLOUDY    27  26  94 CALM      30.28S
ANN ARBOR      CLOUDY    29  24  82 CALM      30.28S
BAD AXE        PTCLDY    20  19  96 CALM      30.28S FOG
CARO           PTCLDY    24  22  91 CALM      30.28S
DETROIT CITY   CLOUDY    32  22  66 S5        30.30S WCI  27
DETROIT        CLOUDY    30  23  75 CALM      30.30S
FLINT          PTCLDY    23  18  81 S3        30.28S
GROSSE ILE     CLOUDY    30  23  74 CALM      30.29S
HILLSDALE      CLOUDY    25  23  91 CALM      30.25S FOG
HOWELL         CLOUDY    26  21  79 CALM      30.27S

CITY           SKY/WX    TMP DP  RH WIND       PRES   REMARKS
JACKSON        CLOUDY    25  22  88 CALM      30.26F
LAMBERTVILLE   CLOUDY    32  27  80 CALM      30.28F
LANSING        CLOUDY    27  21  78 CALM      30.28S
LAPEER         CLOUDY    28  23  82 CALM      30.28S
MASON          CLOUDY    26  23  87 CALM      30.27S
MONROE         CLOUDY    28  27  93 CALM      30.27F
MT. CLEMENS    CLOUDY    29  24  82 E2        30.28S
PONTIAC        CLOUDY    28  19  69 CALM      30.26S
PORT HOPE        N/A     24  19  81 CALM      30.26F
PORT HURON     CLOUDY    27  23  86 CALM      30.30S
TRI CITIES     CLEAR     26  21  81 CALM      30.29S
TROY           CLOUDY    32  21  64 CALM      30.30S
SAGINAW HB     PTCLDY    27  27 100 CALM      30.28S
$$
MIZ043>046-050>051-056>058-064>065-071>073-077>080-210400-
SOUTHWEST LOWER MICHIGAN

CITY           SKY/WX    TMP DP  RH WIND       PRES   REMARKS
BATTLE CREEK   CLOUDY    31  26  82 S3        30.26F
BENTON HARBOR  CLOUDY    30  26  85 S3        30.27S
BIG RAPIDS     CLOUDY    30  27  88 CALM      30.24S
COLDWATER      CLOUDY    29  27  90 MISG      30.26F
FREMONT        CLOUDY    29  28  96 SE3       30.25S FOG
HOLLAND        CLOUDY    32  28  85 SE6       30.26F FOG     WCI  26
GRAND RAPIDS   LGT SNOW  30  25  81 S5        30.27S WCI  25
IONIA          CLOUDY    31  26  81 S5        30.27S WCI  26
KALAMAZOO      CLOUDY    30  27  88 S3        30.27S FOG
LUDINGTON      CLOUDY    31  28  88 SE5       30.25F FOG     WCI  26
MARSHALL       CLOUDY    28  23  84 CALM      30.26S
MOUNT PLEASANT CLOUDY    25  23  95 CALM      30.27R FOG
MUSKEGON       LGT SNOW  31  27  85 SE6       30.26S FOG     WCI  25
SOUTH HAVEN    CLOUDY    32  27  81 S5        30.26S WCI  27
$$
MIZ016>042-210400-
NORTHERN LOWER MICHIGAN

CITY           SKY/WX    TMP DP  RH WIND       PRES   REMARKS
ALPENA         CLOUDY    24  21  88 CALM      30.27S
BEAVER ISLAND  CLOUDY    30  26  84 SE6       30.24S WCI  24
BELLAIRE       CLOUDY    27  23  84 SW3       30.26S
CADILLAC       CLOUDY    26  22  85 CALM      30.21S
CHARLEVOIX     CLOUDY    28  23  82 S3        30.27S
FRANKFORT      CLOUDY    28  24  83 SE3       30.25S
GAYLORD        MOCLDY    20  18  92 CALM      30.22R
GRAYLING       CLOUDY    14  13  94 CALM      30.25R
HARBOR SPRINGS CLOUDY    23  19  85 E3        30.25S
HOUGHTON LAKE  CLOUDY    17  15  92 CALM      30.24S
MANISTEE       MOCLDY    28  21  74 E5        30.25F WCI  23
OSCODA         MOCLDY    19  18  98 CALM      30.26F FOG
PELLSTON       CLOUDY    17  14  88 CALM      30.26S
ROGERS CITY    MOCLDY    17  17  98 CALM      30.27S
TRAVERSE CITY  CLOUDY    29  22  75 CALM      30.25R
$$
MIZ007>008-015-210400-
EASTERN UPPER MICHIGAN

CITY           SKY/WX    TMP DP  RH WIND       PRES   REMARKS
KINROSS        CLOUDY    21  21 100 S5        30.24F WCI  15
MACKINAC ISLAN CLOUDY    27  22  81 S6        30.25S WCI  20
NEWBERRY       CLOUDY    24  22  96 SE5       30.22S WCI  18
S. S. MARIE    CLOUDY    23  18  81 E3        30.24F
MUNISING         N/A     30  22  72 S7        30.21R WCI  23
$$
MIZ004>006-011>014-085-210400-
CENTRAL UPPER MICHIGAN

CITY           SKY/WX    TMP DP  RH WIND       PRES   REMARKS
MANISTIQUE     CLOUDY    25  24  96 CALM      30.23S
ESCANABA       CLOUDY    27  23  86 CALM      30.22S
MENOMINEE      CLOUDY    28  21  74 W3        30.23S
SAWYER-GWINN   CLOUDY    27  23  86 S8        30.17S WCI  18
$$
MIZ001>003-009>011-084-210400-
WESTERN UPPER MICHIGAN

CITY           SKY/WX    TMP DP  RH WIND       PRES   REMARKS
IRON MOUNTAIN  CLOUDY    27  23  85 SE6       30.16F WCI  20
HOUGHTON       CLOUDY    27  24  89 S5        30.12F WCI  22
COPPER HARBOR    N/A     30  26  85 W5        30.15F WCI  25
IRONWOOD       CLOUDY    28  27  93 S6        30.09R WCI  22
$$

ABBREVIATIONS USED IN REMARKS
   TC - TEMPERATURE IN CELSIUS
  WCI - WIND CHILL INDEX
   HX - HEAT INDEX
  VSB - VISIBILITY



USA.gov is the U.S. government's official web portal to all federal, state and local government web resources and services.